Year,Month,Day,Hour,Minute,Value (Times are PST for temperature in C)
2018,04,25,00,00,12.10
2018,04,25,00,01,12.10
2018,04,25,00,02,12.10
2018,04,25,00,03,12.10
2018,04,25,00,04,12.00
2018,04,25,00,05,12.00
2018,04,25,00,06,12.00
2018,04,25,00,07,12.00
2018,04,25,00,08,12.00
2018,04,25,00,09,12.00
2018,04,25,00,10,12.00
2018,04,25,00,11,11.90
2018,04,25,00,12,11.90
2018,04,25,00,13,11.90
2018,04,25,00,14,11.90
2018,04,25,00,15,11.90
2018,04,25,00,16,11.90
2018,04,25,00,17,11.90
2018,04,25,00,18,11.90
2018,04,25,00,19,11.80
2018,04,25,00,20,11.80
2018,04,25,00,21,11.80
2018,04,25,00,22,11.80
2018,04,25,00,23,11.80
2018,04,25,00,24,11.70
2018,04,25,00,25,11.70
2018,04,25,00,26,11.70
2018,04,25,00,27,11.70
2018,04,25,00,28,11.60
2018,04,25,00,29,11.60
2018,04,25,00,30,11.60
2018,04,25,00,31,11.60
2018,04,25,00,32,11.60
2018,04,25,00,33,11.60
2018,04,25,00,34,11.60
2018,04,25,00,35,11.60
2018,04,25,00,36,11.60
2018,04,25,00,37,11.60
2018,04,25,00,38,11.60
2018,04,25,00,39,11.60
2018,04,25,00,40,11.60
2018,04,25,00,41,11.50
2018,04,25,00,42,11.50
2018,04,25,00,43,11.50
2018,04,25,00,44,11.50
2018,04,25,00,45,11.40
2018,04,25,00,46,11.40
2018,04,25,00,47,11.40
2018,04,25,00,48,11.40
2018,04,25,00,49,11.40
2018,04,25,00,50,11.30
2018,04,25,00,51,11.30
2018,04,25,00,52,11.30
2018,04,25,00,53,11.30
2018,04,25,00,54,11.20
2018,04,25,00,55,11.20
2018,04,25,00,56,11.20
2018,04,25,00,57,11.20
2018,04,25,00,58,11.10
2018,04,25,00,59,11.10
2018,04,25,01,00,11.10
2018,04,25,01,01,11.10
2018,04,25,01,02,11.10
2018,04,25,01,03,11.10
2018,04,25,01,04,11.10
2018,04,25,01,05,11.10
2018,04,25,01,06,11.10
2018,04,25,01,07,11.10
2018,04,25,01,08,11.10
2018,04,25,01,09,11.10
2018,04,25,01,10,11.10
2018,04,25,01,11,11.10
2018,04,25,01,12,11.10
2018,04,25,01,13,11.10
2018,04,25,01,14,11.00
2018,04,25,01,15,11.00
2018,04,25,01,16,11.00
2018,04,25,01,17,11.00
2018,04,25,01,18,10.90
2018,04,25,01,19,10.90
2018,04,25,01,20,10.90
2018,04,25,01,21,10.90
2018,04,25,01,22,10.90
2018,04,25,01,23,10.90
2018,04,25,01,24,10.90
2018,04,25,01,25,10.90
2018,04,25,01,26,10.90
2018,04,25,01,27,10.90
2018,04,25,01,28,10.90
2018,04,25,01,29,10.90
2018,04,25,01,30,10.90
2018,04,25,01,31,10.90
2018,04,25,01,32,10.90
2018,04,25,01,33,10.80
2018,04,25,01,34,10.80
2018,04,25,01,35,10.80
2018,04,25,01,36,10.80
2018,04,25,01,37,10.80
2018,04,25,01,38,10.80
2018,04,25,01,39,10.80
2018,04,25,01,40,10.80
2018,04,25,01,41,10.70
2018,04,25,01,42,10.70
2018,04,25,01,43,10.70
2018,04,25,01,44,10.70
2018,04,25,01,45,10.70
2018,04,25,01,46,10.60
2018,04,25,01,47,10.60
2018,04,25,01,48,10.60
2018,04,25,01,49,10.60
2018,04,25,01,50,10.60
2018,04,25,01,51,10.50
2018,04,25,01,52,10.50
2018,04,25,01,53,10.50
2018,04,25,01,54,10.50
2018,04,25,01,55,10.40
2018,04,25,01,56,10.40
2018,04,25,01,57,10.40
2018,04,25,01,58,10.40
2018,04,25,01,59,10.40
2018,04,25,02,00,10.40
2018,04,25,02,01,10.40
2018,04,25,02,02,10.40
2018,04,25,02,03,10.40
2018,04,25,02,04,10.40
2018,04,25,02,05,10.40
2018,04,25,02,06,10.40
2018,04,25,02,07,10.40
2018,04,25,02,08,10.40
2018,04,25,02,09,10.40
2018,04,25,02,10,10.40
2018,04,25,02,11,10.40
2018,04,25,02,12,10.30
2018,04,25,02,13,10.30
2018,04,25,02,14,10.30
2018,04,25,02,15,10.30
2018,04,25,02,16,10.30
2018,04,25,02,17,10.30
2018,04,25,02,18,10.30
2018,04,25,02,19,10.20
2018,04,25,02,20,10.20
2018,04,25,02,21,10.20
2018,04,25,02,22,10.20
2018,04,25,02,23,10.20
2018,04,25,02,24,10.10
2018,04,25,02,25,10.10
2018,04,25,02,26,10.10
2018,04,25,02,27,10.10
2018,04,25,02,28,10.10
2018,04,25,02,29,10.10
2018,04,25,02,30,10.10
2018,04,25,02,31,10.10
2018,04,25,02,32,10.10
2018,04,25,02,33,10.10
2018,04,25,02,34,10.10
2018,04,25,02,35,10.10
2018,04,25,02,36,10.10
2018,04,25,02,37,10.10
2018,04,25,02,38,10.10
2018,04,25,02,39,10.10
2018,04,25,02,40,10.10
2018,04,25,02,41,10.10
2018,04,25,02,42,10.10
2018,04,25,02,43,10.10
2018,04,25,02,44,10.10
2018,04,25,02,45,10.10
2018,04,25,02,46,10.10
2018,04,25,02,47,10.10
2018,04,25,02,48,10.10
2018,04,25,02,49,10.10
2018,04,25,02,50,10.10
2018,04,25,02,51,10.10
2018,04,25,02,52,10.10
2018,04,25,02,53,10.10
2018,04,25,02,54,10.00
2018,04,25,02,55,10.00
2018,04,25,02,56,10.00
2018,04,25,02,57,10.00
2018,04,25,02,58,10.00
2018,04,25,02,59,10.00
2018,04,25,03,00,10.00
2018,04,25,03,01,10.00
2018,04,25,03,02,9.90
2018,04,25,03,03,9.90
2018,04,25,03,04,9.90
2018,04,25,03,05,9.90
2018,04,25,03,06,9.90
2018,04,25,03,07,9.90
2018,04,25,03,08,9.90
2018,04,25,03,09,9.90
2018,04,25,03,10,9.90
2018,04,25,03,11,9.90
2018,04,25,03,12,9.90
2018,04,25,03,13,9.80
2018,04,25,03,14,9.80
2018,04,25,03,15,9.80
2018,04,25,03,16,9.70
2018,04,25,03,17,9.70
2018,04,25,03,18,9.70
2018,04,25,03,19,9.60
2018,04,25,03,20,9.60
2018,04,25,03,21,9.60
2018,04,25,03,22,9.60
2018,04,25,03,23,9.50
2018,04,25,03,24,9.50
2018,04,25,03,25,9.50
2018,04,25,03,26,9.50
2018,04,25,03,27,9.50
2018,04,25,03,28,9.50
2018,04,25,03,29,9.50
2018,04,25,03,30,9.50
2018,04,25,03,31,9.50
2018,04,25,03,32,9.50
2018,04,25,03,33,9.50
2018,04,25,03,34,9.50
2018,04,25,03,35,9.50
2018,04,25,03,36,9.50
2018,04,25,03,37,9.50
2018,04,25,03,38,9.50
2018,04,25,03,39,9.50
2018,04,25,03,40,9.50
2018,04,25,03,41,9.50
2018,04,25,03,42,9.50
2018,04,25,03,43,9.50
2018,04,25,03,44,9.50
2018,04,25,03,45,9.50
2018,04,25,03,46,9.50
2018,04,25,03,47,9.50
2018,04,25,03,48,9.50
2018,04,25,03,49,9.50
2018,04,25,03,50,9.50
2018,04,25,03,51,9.50
2018,04,25,03,52,9.50
2018,04,25,03,53,9.50
2018,04,25,03,54,9.50
2018,04,25,03,55,9.50
2018,04,25,03,56,9.50
2018,04,25,03,57,9.50
2018,04,25,03,58,9.50
2018,04,25,03,59,9.50
2018,04,25,04,00,9.50
2018,04,25,04,01,9.50
2018,04,25,04,02,9.50
2018,04,25,04,03,9.50
2018,04,25,04,04,9.50
2018,04,25,04,05,9.50
2018,04,25,04,06,9.40
2018,04,25,04,07,9.40
2018,04,25,04,08,9.40
2018,04,25,04,09,9.40
2018,04,25,04,10,9.40
2018,04,25,04,11,9.40
2018,04,25,04,12,9.40
2018,04,25,04,13,9.40
2018,04,25,04,14,9.40
2018,04,25,04,15,9.40
2018,04,25,04,16,9.40
2018,04,25,04,17,9.40
2018,04,25,04,18,9.40
2018,04,25,04,19,9.40
2018,04,25,04,20,9.30
2018,04,25,04,21,9.30
2018,04,25,04,22,9.30
2018,04,25,04,23,9.30
2018,04,25,04,24,9.30
2018,04,25,04,25,9.30
2018,04,25,04,26,9.30
2018,04,25,04,27,9.30
2018,04,25,04,28,9.30
2018,04,25,04,29,9.30
2018,04,25,04,30,9.30
2018,04,25,04,31,9.30
2018,04,25,04,32,9.30
2018,04,25,04,33,9.30
2018,04,25,04,34,9.30
2018,04,25,04,35,9.30
2018,04,25,04,36,9.30
2018,04,25,04,37,9.30
2018,04,25,04,38,9.20
2018,04,25,04,39,9.20
2018,04,25,04,40,9.20
2018,04,25,04,41,9.20
2018,04,25,04,42,9.20
2018,04,25,04,43,9.20
2018,04,25,04,44,9.20
2018,04,25,04,45,9.20
2018,04,25,04,46,9.20
2018,04,25,04,47,9.20
2018,04,25,04,48,9.20
2018,04,25,04,49,9.20
2018,04,25,04,50,9.20
2018,04,25,04,51,9.10
2018,04,25,04,52,9.10
2018,04,25,04,53,9.10
2018,04,25,04,54,9.10
2018,04,25,04,55,9.10
2018,04,25,04,56,9.10
2018,04,25,04,57,9.10
2018,04,25,04,58,9.10
2018,04,25,04,59,9.10
2018,04,25,05,00,9.00
2018,04,25,05,01,9.00
2018,04,25,05,02,9.00
2018,04,25,05,03,8.90
2018,04,25,05,04,8.90
2018,04,25,05,05,8.90
2018,04,25,05,06,8.90
2018,04,25,05,07,8.90
2018,04,25,05,08,8.80
2018,04,25,05,09,8.80
2018,04,25,05,10,8.80
2018,04,25,05,11,8.80
2018,04,25,05,12,8.80
2018,04,25,05,13,8.80
2018,04,25,05,14,8.80
2018,04,25,05,15,8.70
2018,04,25,05,16,8.70
2018,04,25,05,17,8.70
2018,04,25,05,18,8.70
2018,04,25,05,19,8.70
2018,04,25,05,20,8.70
2018,04,25,05,21,8.70
2018,04,25,05,22,8.70
2018,04,25,05,23,8.70
2018,04,25,05,24,8.70
2018,04,25,05,25,8.70
2018,04,25,05,26,8.70
2018,04,25,05,27,8.70
2018,04,25,05,28,8.70
2018,04,25,05,29,8.70
2018,04,25,05,30,8.70
2018,04,25,05,31,8.70
2018,04,25,05,32,8.70
2018,04,25,05,33,8.70
2018,04,25,05,34,8.70
2018,04,25,05,35,8.80
2018,04,25,05,36,8.70
2018,04,25,05,37,8.70
2018,04,25,05,38,8.70
2018,04,25,05,39,8.70
2018,04,25,05,40,8.70
2018,04,25,05,41,8.70
2018,04,25,05,42,8.70
2018,04,25,05,43,8.70
2018,04,25,05,44,8.70
2018,04,25,05,45,8.70
2018,04,25,05,46,8.70
2018,04,25,05,47,8.70
2018,04,25,05,48,8.70
2018,04,25,05,49,8.70
2018,04,25,05,50,8.70
2018,04,25,05,51,8.70
2018,04,25,05,52,8.70
2018,04,25,05,53,8.70
2018,04,25,05,54,8.70
2018,04,25,05,55,8.70
2018,04,25,05,56,8.70
2018,04,25,05,57,8.70
2018,04,25,05,58,8.70
2018,04,25,05,59,8.70
2018,04,25,06,00,8.70
2018,04,25,06,01,8.70
2018,04,25,06,02,8.70
2018,04,25,06,03,8.70
2018,04,25,06,04,8.70
2018,04,25,06,05,8.70
2018,04,25,06,06,8.70
2018,04,25,06,07,8.70
2018,04,25,06,08,8.70
2018,04,25,06,09,8.70
2018,04,25,06,10,8.60
2018,04,25,06,11,8.60
2018,04,25,06,12,8.60
2018,04,25,06,13,8.60
2018,04,25,06,14,8.60
2018,04,25,06,15,8.60
2018,04,25,06,16,8.60
2018,04,25,06,17,8.50
2018,04,25,06,18,8.50
2018,04,25,06,19,8.50
2018,04,25,06,20,8.50
2018,04,25,06,21,8.50
2018,04,25,06,22,8.50
2018,04,25,06,23,8.50
2018,04,25,06,24,8.50
2018,04,25,06,25,8.50
2018,04,25,06,26,8.50
2018,04,25,06,27,8.50
2018,04,25,06,28,8.50
2018,04,25,06,29,8.50
2018,04,25,06,30,8.50
2018,04,25,06,31,8.50
2018,04,25,06,32,8.50
2018,04,25,06,33,8.50
2018,04,25,06,34,8.50
2018,04,25,06,35,8.50
2018,04,25,06,36,8.50
2018,04,25,06,37,8.50
2018,04,25,06,38,8.60
2018,04,25,06,39,8.60
2018,04,25,06,40,8.60
2018,04,25,06,41,8.60
2018,04,25,06,42,8.60
2018,04,25,06,43,8.70
2018,04,25,06,44,8.70
2018,04,25,06,45,8.70
2018,04,25,06,46,8.70
2018,04,25,06,47,8.70
2018,04,25,06,48,8.70
2018,04,25,06,49,8.70
2018,04,25,06,50,8.70
2018,04,25,06,51,8.70
2018,04,25,06,52,8.70
2018,04,25,06,53,8.70
2018,04,25,06,54,8.70
2018,04,25,06,55,8.70
2018,04,25,06,56,8.70
2018,04,25,06,57,8.70
2018,04,25,06,58,8.70
2018,04,25,06,59,8.70
2018,04,25,07,00,8.70
2018,04,25,07,01,8.70
2018,04,25,07,02,8.70
2018,04,25,07,03,8.70
2018,04,25,07,04,8.70
2018,04,25,07,05,8.70
2018,04,25,07,06,8.70
2018,04,25,07,07,8.70
2018,04,25,07,08,8.70
2018,04,25,07,09,8.70
2018,04,25,07,10,8.70
2018,04,25,07,11,8.60
2018,04,25,07,12,8.60
2018,04,25,07,13,8.70
2018,04,25,07,14,8.70
2018,04,25,07,15,8.70
2018,04,25,07,16,8.70
2018,04,25,07,17,8.70
2018,04,25,07,18,8.70
2018,04,25,07,19,8.70
2018,04,25,07,20,8.70
2018,04,25,07,21,8.70
2018,04,25,07,22,8.80
2018,04,25,07,23,8.80
2018,04,25,07,24,8.80
2018,04,25,07,25,8.80
2018,04,25,07,26,8.80
2018,04,25,07,27,8.90
2018,04,25,07,28,8.90
2018,04,25,07,29,8.90
2018,04,25,07,30,8.90
2018,04,25,07,31,8.90
2018,04,25,07,32,8.90
2018,04,25,07,33,8.90
2018,04,25,07,34,9.00
2018,04,25,07,35,9.00
2018,04,25,07,36,9.00
2018,04,25,07,37,9.10
2018,04,25,07,38,9.10
2018,04,25,07,39,9.10
2018,04,25,07,40,9.10
2018,04,25,07,41,9.10
2018,04,25,07,42,9.20
2018,04,25,07,43,9.20
2018,04,25,07,44,9.20
2018,04,25,07,45,9.20
2018,04,25,07,46,9.20
2018,04,25,07,47,9.30
2018,04,25,07,48,9.30
2018,04,25,07,49,9.30
2018,04,25,07,50,9.30
2018,04,25,07,51,9.30
2018,04,25,07,52,9.40
2018,04,25,07,53,9.40
2018,04,25,07,54,9.40
2018,04,25,07,55,9.40
2018,04,25,07,56,9.50
2018,04,25,07,57,9.50
2018,04,25,07,58,9.50
2018,04,25,07,59,9.60
2018,04,25,08,00,9.60
2018,04,25,08,01,9.60
2018,04,25,08,02,9.60
2018,04,25,08,03,9.70
2018,04,25,08,04,9.70
2018,04,25,08,05,9.70
2018,04,25,08,06,9.70
2018,04,25,08,07,9.80
2018,04,25,08,08,9.80
2018,04,25,08,09,9.80
2018,04,25,08,10,9.80
2018,04,25,08,11,9.90
2018,04,25,08,12,9.90
2018,04,25,08,13,9.90
2018,04,25,08,14,9.90
2018,04,25,08,15,9.90
2018,04,25,08,16,9.90
2018,04,25,08,17,9.90
2018,04,25,08,18,10.00
2018,04,25,08,19,10.00
2018,04,25,08,20,10.10
2018,04,25,08,21,10.10
2018,04,25,08,22,10.20
2018,04,25,08,23,10.20
2018,04,25,08,24,10.30
2018,04,25,08,25,10.30
2018,04,25,08,26,10.30
2018,04,25,08,27,10.40
2018,04,25,08,28,10.50
2018,04,25,08,29,10.50
2018,04,25,08,30,10.60
2018,04,25,08,31,10.60
2018,04,25,08,32,10.60
2018,04,25,08,33,10.60
2018,04,25,08,34,10.70
2018,04,25,08,35,10.70
2018,04,25,08,36,10.70
2018,04,25,08,37,10.70
2018,04,25,08,38,10.70
2018,04,25,08,39,10.70
2018,04,25,08,40,10.80
2018,04,25,08,41,10.80
2018,04,25,08,42,10.80
2018,04,25,08,43,10.80
2018,04,25,08,44,10.90
2018,04,25,08,45,11.00
2018,04,25,08,46,11.00
2018,04,25,08,47,11.00
2018,04,25,08,48,11.10
2018,04,25,08,49,11.10
2018,04,25,08,50,11.10
2018,04,25,08,51,11.20
2018,04,25,08,52,11.20
2018,04,25,08,53,11.20
2018,04,25,08,54,11.30
2018,04,25,08,55,11.30
2018,04,25,08,56,11.40
2018,04,25,08,57,11.40
2018,04,25,08,58,11.40
2018,04,25,08,59,11.50
2018,04,25,09,00,11.60
2018,04,25,09,01,11.60
2018,04,25,09,02,11.70
2018,04,25,09,03,11.70
2018,04,25,09,04,11.80
2018,04,25,09,05,11.80
2018,04,25,09,06,11.80
2018,04,25,09,07,11.80
2018,04,25,09,08,11.80
2018,04,25,09,09,11.80
2018,04,25,09,10,11.80
2018,04,25,09,11,11.80
2018,04,25,09,12,11.80
2018,04,25,09,13,11.90
2018,04,25,09,14,11.90
2018,04,25,09,15,11.90
2018,04,25,09,16,11.90
2018,04,25,09,17,12.00
2018,04,25,09,18,12.00
2018,04,25,09,19,12.10
2018,04,25,09,20,12.10
2018,04,25,09,21,12.20
2018,04,25,09,22,12.20
2018,04,25,09,23,12.30
2018,04,25,09,24,12.40
2018,04,25,09,25,12.40
2018,04,25,09,26,12.50
2018,04,25,09,27,12.50
2018,04,25,09,28,12.60
2018,04,25,09,29,12.60
2018,04,25,09,30,12.70
2018,04,25,09,31,12.80
2018,04,25,09,32,12.80
2018,04,25,09,33,12.90
2018,04,25,09,34,13.00
2018,04,25,09,35,13.10
2018,04,25,09,36,13.10
2018,04,25,09,37,13.10
2018,04,25,09,38,13.10
2018,04,25,09,39,13.10
2018,04,25,09,40,13.10
2018,04,25,09,41,13.10
2018,04,25,09,42,13.10
2018,04,25,09,43,13.10
2018,04,25,09,44,13.10
2018,04,25,09,45,13.20
2018,04,25,09,46,13.20
2018,04,25,09,47,13.20
2018,04,25,09,48,13.20
2018,04,25,09,49,13.30
2018,04,25,09,50,13.30
2018,04,25,09,51,13.30
2018,04,25,09,52,13.30
2018,04,25,09,53,13.30
2018,04,25,09,54,13.40
2018,04,25,09,55,13.40
2018,04,25,09,56,13.40
2018,04,25,09,57,13.40
2018,04,25,09,58,13.50
2018,04,25,09,59,13.50
2018,04,25,10,00,13.60
2018,04,25,10,01,13.70
2018,04,25,10,02,13.70
2018,04,25,10,03,13.80
2018,04,25,10,04,13.80
2018,04,25,10,05,13.90
2018,04,25,10,06,13.90
2018,04,25,10,07,13.90
2018,04,25,10,08,13.90
2018,04,25,10,09,13.90
2018,04,25,10,10,13.90
2018,04,25,10,11,13.90
2018,04,25,10,12,13.90
2018,04,25,10,13,13.90
2018,04,25,10,14,13.90
2018,04,25,10,15,13.90
2018,04,25,10,16,13.90
2018,04,25,10,17,13.90
2018,04,25,10,18,14.00
2018,04,25,10,19,14.10
2018,04,25,10,20,14.10
2018,04,25,10,21,14.10
2018,04,25,10,22,14.20
2018,04,25,10,23,14.20
2018,04,25,10,24,14.30
2018,04,25,10,25,14.40
2018,04,25,10,26,14.50
2018,04,25,10,27,14.60
2018,04,25,10,28,14.60
2018,04,25,10,29,14.70
2018,04,25,10,30,14.80
2018,04,25,10,31,14.80
2018,04,25,10,32,14.80
2018,04,25,10,33,14.80
2018,04,25,10,34,14.80
2018,04,25,10,35,14.90
2018,04,25,10,36,14.90
2018,04,25,10,37,14.90
2018,04,25,10,38,15.00
2018,04,25,10,39,15.10
2018,04,25,10,40,15.10
2018,04,25,10,41,15.20
2018,04,25,10,42,15.20
2018,04,25,10,43,15.20
2018,04,25,10,44,15.20
2018,04,25,10,45,15.20
2018,04,25,10,46,15.30
2018,04,25,10,47,15.30
2018,04,25,10,48,15.40
2018,04,25,10,49,15.40
2018,04,25,10,50,15.30
2018,04,25,10,51,15.40
2018,04,25,10,52,15.40
2018,04,25,10,53,15.40
2018,04,25,10,54,15.40
2018,04,25,10,55,15.40
2018,04,25,10,56,15.50
2018,04,25,10,57,15.60
2018,04,25,10,58,15.60
2018,04,25,10,59,15.60
2018,04,25,11,00,15.70
2018,04,25,11,01,15.70
2018,04,25,11,02,15.70
2018,04,25,11,03,15.70
2018,04,25,11,04,15.70
2018,04,25,11,05,15.80
2018,04,25,11,06,15.90
2018,04,25,11,07,16.00
2018,04,25,11,08,16.10
2018,04,25,11,09,16.10
2018,04,25,11,10,16.20
2018,04,25,11,11,16.20
2018,04,25,11,12,16.10
2018,04,25,11,13,16.10
2018,04,25,11,14,16.20
2018,04,25,11,15,16.20
2018,04,25,11,16,16.30
2018,04,25,11,17,16.40
2018,04,25,11,18,16.40
2018,04,25,11,19,16.50
2018,04,25,11,20,16.50
2018,04,25,11,21,16.60
2018,04,25,11,22,16.60
2018,04,25,11,23,16.60
2018,04,25,11,24,16.70
2018,04,25,11,25,16.80
2018,04,25,11,26,16.90
2018,04,25,11,27,16.90
2018,04,25,11,28,17.00
2018,04,25,11,29,16.90
2018,04,25,11,30,16.80
2018,04,25,11,31,16.80
2018,04,25,11,32,16.80
2018,04,25,11,33,16.90
2018,04,25,11,34,16.90
2018,04,25,11,35,16.90
2018,04,25,11,36,17.00
2018,04,25,11,37,17.00
2018,04,25,11,38,17.10
2018,04,25,11,39,17.20
2018,04,25,11,40,17.30
2018,04,25,11,41,17.30
2018,04,25,11,42,17.30
2018,04,25,11,43,17.30
2018,04,25,11,44,17.30
2018,04,25,11,45,17.30
2018,04,25,11,46,17.30
2018,04,25,11,47,17.30
2018,04,25,11,48,17.30
2018,04,25,11,49,17.30
2018,04,25,11,50,17.40
2018,04,25,11,51,17.50
2018,04,25,11,52,17.50
2018,04,25,11,53,17.60
2018,04,25,11,54,17.70
2018,04,25,11,55,17.80
2018,04,25,11,56,17.80
2018,04,25,11,57,17.90
2018,04,25,11,58,18.00
2018,04,25,11,59,18.00
2018,04,25,12,00,18.00
2018,04,25,12,01,18.00
2018,04,25,12,02,18.00
2018,04,25,12,03,18.10
2018,04,25,12,04,18.20
2018,04,25,12,05,18.30
2018,04,25,12,06,18.30
2018,04,25,12,07,18.40
2018,04,25,12,08,18.40
2018,04,25,12,09,18.40
2018,04,25,12,10,18.40
2018,04,25,12,11,18.30
2018,04,25,12,12,18.30
2018,04,25,12,13,18.30
2018,04,25,12,14,18.30
2018,04,25,12,15,18.30
2018,04,25,12,16,18.30
2018,04,25,12,17,18.40
2018,04,25,12,18,18.50
2018,04,25,12,19,18.60
2018,04,25,12,20,18.50
2018,04,25,12,21,18.50
2018,04,25,12,22,18.40
2018,04,25,12,23,18.30
2018,04,25,12,24,18.30
2018,04,25,12,25,18.40
2018,04,25,12,26,18.40
2018,04,25,12,27,18.50
2018,04,25,12,28,18.60
2018,04,25,12,29,18.70
2018,04,25,12,30,18.70
2018,04,25,12,31,18.80
2018,04,25,12,32,18.80
2018,04,25,12,33,18.90
2018,04,25,12,34,18.90
2018,04,25,12,35,19.00
2018,04,25,12,36,19.10
2018,04,25,12,37,19.10
2018,04,25,12,38,19.10
2018,04,25,12,39,19.20
2018,04,25,12,40,19.30
2018,04,25,12,41,19.30
2018,04,25,12,42,19.30
2018,04,25,12,43,19.30
2018,04,25,12,44,19.30
2018,04,25,12,45,19.40
2018,04,25,12,46,19.50
2018,04,25,12,47,19.50
2018,04,25,12,48,19.60
2018,04,25,12,49,19.60
2018,04,25,12,50,19.60
2018,04,25,12,51,19.60
2018,04,25,12,52,19.60
2018,04,25,12,53,19.60
2018,04,25,12,54,19.70
2018,04,25,12,55,19.80
2018,04,25,12,56,19.80
2018,04,25,12,57,19.90
2018,04,25,12,58,20.00
2018,04,25,12,59,20.10
2018,04,25,13,00,20.20
2018,04,25,13,01,20.30
2018,04,25,13,02,20.30
2018,04,25,13,03,20.30
2018,04,25,13,04,20.30
2018,04,25,13,05,20.20
2018,04,25,13,06,20.20
2018,04,25,13,07,20.10
2018,04,25,13,08,20.10
2018,04,25,13,09,20.10
2018,04,25,13,10,20.10
2018,04,25,13,11,20.20
2018,04,25,13,12,20.20
2018,04,25,13,13,20.30
2018,04,25,13,14,20.40
2018,04,25,13,15,20.40
2018,04,25,13,16,20.50
2018,04,25,13,17,20.60
2018,04,25,13,18,20.60
2018,04,25,13,19,20.60
2018,04,25,13,20,20.60
2018,04,25,13,21,20.60
2018,04,25,13,22,20.50
2018,04,25,13,23,20.40
2018,04,25,13,24,20.50
2018,04,25,13,25,20.60
2018,04,25,13,26,20.70
2018,04,25,13,27,20.80
2018,04,25,13,28,20.90
2018,04,25,13,29,20.80
2018,04,25,13,30,20.80
2018,04,25,13,31,20.90
2018,04,25,13,32,20.90
2018,04,25,13,33,20.90
2018,04,25,13,34,20.90
2018,04,25,13,35,21.00
2018,04,25,13,36,21.10
2018,04,25,13,37,21.10
2018,04,25,13,38,21.20
2018,04,25,13,39,21.30
2018,04,25,13,40,21.30
2018,04,25,13,41,21.30
2018,04,25,13,42,21.30
2018,04,25,13,43,21.30
2018,04,25,13,44,21.30
2018,04,25,13,45,21.20
2018,04,25,13,46,21.10
2018,04,25,13,47,21.00
2018,04,25,13,48,21.00
2018,04,25,13,49,21.00
2018,04,25,13,50,21.00
2018,04,25,13,51,21.10
2018,04,25,13,52,21.20
2018,04,25,13,53,21.20
2018,04,25,13,54,21.20
2018,04,25,13,55,21.20
2018,04,25,13,56,21.20
2018,04,25,13,57,21.30
2018,04,25,13,58,21.30
2018,04,25,13,59,21.30
2018,04,25,14,00,21.30
2018,04,25,14,01,21.30
2018,04,25,14,02,21.30
2018,04,25,14,03,21.40
2018,04,25,14,04,21.50
2018,04,25,14,05,21.60
2018,04,25,14,06,21.70
2018,04,25,14,07,21.90
2018,04,25,14,08,21.90
2018,04,25,14,09,22.00
2018,04,25,14,10,22.10
2018,04,25,14,11,22.20
2018,04,25,14,12,22.20
2018,04,25,14,13,22.30
2018,04,25,14,14,22.20
2018,04,25,14,15,22.10
2018,04,25,14,16,22.00
2018,04,25,14,17,21.90
2018,04,25,14,18,21.70
2018,04,25,14,19,21.60
2018,04,25,14,20,21.40
2018,04,25,14,21,21.40
2018,04,25,14,22,21.30
2018,04,25,14,23,21.20
2018,04,25,14,24,21.20
2018,04,25,14,25,21.10
2018,04,25,14,26,21.10
2018,04,25,14,27,21.10
2018,04,25,14,28,21.10
2018,04,25,14,29,21.20
2018,04,25,14,30,21.20
2018,04,25,14,31,21.20
2018,04,25,14,32,21.20
2018,04,25,14,33,21.20
2018,04,25,14,34,21.20
2018,04,25,14,35,21.20
2018,04,25,14,36,21.20
2018,04,25,14,37,21.30
2018,04,25,14,38,21.30
2018,04,25,14,39,21.30
2018,04,25,14,40,21.40
2018,04,25,14,41,21.50
2018,04,25,14,42,21.70
2018,04,25,14,43,21.90
2018,04,25,14,44,22.10
2018,04,25,14,45,22.30
2018,04,25,14,46,22.40
2018,04,25,14,47,22.40
2018,04,25,14,48,22.50
2018,04,25,14,49,22.50
2018,04,25,14,50,22.60
2018,04,25,14,51,22.60
2018,04,25,14,52,22.60
2018,04,25,14,53,22.70
2018,04,25,14,54,22.70
2018,04,25,14,55,22.70
2018,04,25,14,56,22.80
2018,04,25,14,57,22.80
2018,04,25,14,58,22.80
2018,04,25,14,59,22.80
2018,04,25,15,00,22.70
2018,04,25,15,01,22.60
2018,04,25,15,02,22.50
2018,04,25,15,03,22.40
2018,04,25,15,04,22.30
2018,04,25,15,05,22.10
2018,04,25,15,06,22.00
2018,04,25,15,07,22.00
2018,04,25,15,08,22.10
2018,04,25,15,09,22.10
2018,04,25,15,10,22.20
2018,04,25,15,11,22.30
2018,04,25,15,12,22.30
2018,04,25,15,13,22.20
2018,04,25,15,14,22.20
2018,04,25,15,15,22.20
2018,04,25,15,16,22.30
2018,04,25,15,17,22.50
2018,04,25,15,18,22.70
2018,04,25,15,19,22.80
2018,04,25,15,20,22.90
2018,04,25,15,21,22.90
2018,04,25,15,22,22.80
2018,04,25,15,23,22.80
2018,04,25,15,24,22.80
2018,04,25,15,25,22.80
2018,04,25,15,26,22.70
2018,04,25,15,27,22.70
2018,04,25,15,28,22.80
2018,04,25,15,29,22.90
2018,04,25,15,30,23.00
2018,04,25,15,31,23.10
2018,04,25,15,32,23.20
2018,04,25,15,33,23.30
2018,04,25,15,34,23.40
2018,04,25,15,35,23.50
2018,04,25,15,36,23.60
2018,04,25,15,37,23.70
2018,04,25,15,38,23.80
2018,04,25,15,39,23.90
2018,04,25,15,40,23.90
2018,04,25,15,41,23.90
2018,04,25,15,42,23.80
2018,04,25,15,43,23.70
2018,04,25,15,44,23.60
2018,04,25,15,45,23.50
2018,04,25,15,46,23.50
2018,04,25,15,47,23.40
2018,04,25,15,48,23.40
2018,04,25,15,49,23.40
2018,04,25,15,50,23.40
2018,04,25,15,51,23.30
2018,04,25,15,52,23.30
2018,04,25,15,53,23.30
2018,04,25,15,54,23.20
2018,04,25,15,55,23.30
2018,04,25,15,56,23.30
2018,04,25,15,57,23.30
2018,04,25,15,58,23.40
2018,04,25,15,59,23.40
2018,04,25,16,00,23.40
2018,04,25,16,01,23.40
2018,04,25,16,02,23.50
2018,04,25,16,03,23.60
2018,04,25,16,04,23.70
2018,04,25,16,05,23.70
2018,04,25,16,06,23.80
2018,04,25,16,07,23.80
2018,04,25,16,08,23.70
2018,04,25,16,09,23.60
2018,04,25,16,10,23.60
2018,04,25,16,11,23.50
2018,04,25,16,12,23.50
2018,04,25,16,13,23.60
2018,04,25,16,14,23.60
2018,04,25,16,15,23.60
2018,04,25,16,16,23.60
2018,04,25,16,17,23.70
2018,04,25,16,18,23.70
2018,04,25,16,19,23.80
2018,04,25,16,20,23.80
2018,04,25,16,21,23.70
2018,04,25,16,22,23.70
2018,04,25,16,23,23.60
2018,04,25,16,24,23.60
2018,04,25,16,25,23.60
2018,04,25,16,26,23.70
2018,04,25,16,27,23.70
2018,04,25,16,28,23.70
2018,04,25,16,29,23.70
2018,04,25,16,30,23.70
2018,04,25,16,31,23.70
2018,04,25,16,32,23.70
2018,04,25,16,33,23.70
2018,04,25,16,34,23.70
2018,04,25,16,35,23.80
2018,04,25,16,36,23.80
2018,04,25,16,37,23.90
2018,04,25,16,38,24.00
2018,04,25,16,39,24.10
2018,04,25,16,40,24.10
2018,04,25,16,41,24.20
2018,04,25,16,42,24.20
2018,04,25,16,43,24.20
2018,04,25,16,44,24.30
2018,04,25,16,45,24.30
2018,04,25,16,46,24.40
2018,04,25,16,47,24.40
2018,04,25,16,48,24.50
2018,04,25,16,49,24.50
2018,04,25,16,50,24.50
2018,04,25,16,51,24.40
2018,04,25,16,52,24.30
2018,04,25,16,53,24.10
2018,04,25,16,54,24.00
2018,04,25,16,55,24.00
2018,04,25,16,56,23.90
2018,04,25,16,57,23.90
2018,04,25,16,58,24.00
2018,04,25,16,59,24.00
2018,04,25,17,00,24.10
2018,04,25,17,01,24.10
2018,04,25,17,02,24.20
2018,04,25,17,03,24.30
2018,04,25,17,04,24.30
2018,04,25,17,05,24.40
2018,04,25,17,06,24.40
2018,04,25,17,07,24.40
2018,04,25,17,08,24.50
2018,04,25,17,09,24.50
2018,04,25,17,10,24.60
2018,04,25,17,11,24.60
2018,04,25,17,12,24.60
2018,04,25,17,13,24.70
2018,04,25,17,14,24.70
2018,04,25,17,15,24.60
2018,04,25,17,16,24.60
2018,04,25,17,17,24.60
2018,04,25,17,18,24.60
2018,04,25,17,19,24.60
2018,04,25,17,20,24.60
2018,04,25,17,21,24.60
2018,04,25,17,22,24.50
2018,04,25,17,23,24.40
2018,04,25,17,24,24.40
2018,04,25,17,25,24.30
2018,04,25,17,26,24.30
2018,04,25,17,27,24.30
2018,04,25,17,28,24.20
2018,04,25,17,29,24.10
2018,04,25,17,30,24.10
2018,04,25,17,31,24.10
2018,04,25,17,32,24.00
2018,04,25,17,33,23.90